This is the latest recevied weather packets stored in our database for station/object SV2JU-2. If no packets are shown the sender has not sent any weather packets the latest 10 day(s).
| Time | Temp. | Humidity | Pressure | Rain* | Wind** | Luminosity | Snow |
|---|---|---|---|---|---|---|---|
| 1787847422 | 30.56° C | 24% | 1015 hPa | 0 mm | - | - | - |
| 1787846671 | 30.56° C | 24% | 1015 hPa | 0 mm | - | - | - |
| 1787845921 | 31.11° C | 24% | 1015 hPa | 0 mm | - | - | - |
| 1787845171 | 31.11° C | 23% | 1015 hPa | 0 mm | - | - | - |
| 1787843670 | 31.67° C | 24% | 1015 hPa | 0 mm | - | - | - |
| 1787842921 | 32.22° C | 22% | 1015 hPa | 0 mm | - | - | - |
| 1787842171 | 32.22° C | 22% | 1015 hPa | 0 mm | - | - | - |
| 1787841421 | 32.22° C | 21% | 1015 hPa | 0 mm | - | - | - |
| 1787840670 | 32.22° C | 20% | 1015 hPa | 0 mm | - | - | - |
| 1787839170 | 32.78° C | 19% | 1015 hPa | 0 mm | - | - | - |
| 1787838421 | 32.78° C | 20% | 1015 hPa | 0 mm | - | - | - |
| 1787838298 | 32.78° C | 20% | 1015 hPa | 0 mm | - | - | - |
| 1787837549 | 32.78° C | 20% | 1015 hPa | 0 mm | - | - | - |
| 1787836798 | 32.22° C | 20% | 1015 hPa | 0 mm | - | - | - |
| 1787836049 | 32.22° C | 21% | 1015 hPa | 0 mm | - | - | - |
| 1787835298 | 32.22° C | 21% | 1016 hPa | 0 mm | - | - | - |
| 1787834549 | 32.22° C | 18% | 1015 hPa | 0 mm | - | - | - |
| 1787833798 | 32.22° C | 19% | 1016 hPa | 0 mm | - | - | - |
| 1787833051 | 31.67° C | 21% | 1016 hPa | 0 mm | - | - | - |
| 1787832298 | 32.22° C | 21% | 1016 hPa | 0 mm | - | - | - |
| 1787831548 | 32.22° C | 20% | 1016 hPa | 0 mm | - | - | - |
| 1787830797 | 32.22° C | 19% | 1016 hPa | 0 mm | - | - | - |
| 1787830048 | 32.22° C | 18% | 1016 hPa | 0 mm | - | - | - |
| 1787829298 | 31.67° C | 19% | 1016 hPa | 0 mm | - | - | - |
| 1787828548 | 31.67° C | 20% | 1017 hPa | 0 mm | - | - | - |
* Rain latest hour (hover to see other rain measurements)
** Current wind speed in m/s (hover to see current wind gust speed)